Total_Precipitation_Accumulation
0.00 0.00 0.01 0.01 0.01 0.02 0.03 0.07 0.15 0.17 0.16 0.23 0.37 0.62 0.75 0.73 0.77 0.89 1.01 1.20 1.23 1.29 1.55 2.01 2.64 3.24 3.96 4.97 5.57 5.64 5.24 4.38 3.69 3.07 2.79 2.51 2.26 2.04 1.75 1.43 1.20 1.09 1.06 0.97
0.01 0.02 0.02 0.01 0.01 0.03 0.05 0.09 0.17 0.16 0.12 0.14 0.34 0.65 0.75 0.81 0.86 0.84 0.89 0.99 0.93 1.05 1.39 2.02 2.80 3.56 4.10 4.57 4.86 4.82 4.32 3.48 2.92 2.49 2.37 2.16 1.92 1.56 1.41 1.23 1.09 0.96 0.91 0.85
0.02 0.03 0.02 0.01 0.02 0.04 0.08 0.09 0.14 0.17 0.13 0.15 0.35 0.76 0.88 0.87 0.85 0.82 0.71 0.72 0.82 1.02 1.60 2.37 3.18 3.85 4.06 4.01 3.76 3.36 3.03 2.61 2.43 2.31 2.09 1.88 1.77 1.48 1.23 0.99 0.88 0.80 0.73 0.66
0.02 0.03 0.02 0.02 0.04 0.05 0.09 0.07 0.05 0.07 0.11 0.32 0.45 0.87 0.96 0.96 0.94 0.78 0.68 0.75 0.91 1.16 1.71 2.43 2.99 3.17 3.22 3.07 2.70 2.40 2.27 2.17 2.04 1.94 1.78 1.46 1.24 1.16 1.01 0.90 0.84 0.76 0.65 0.58
0.02 0.03 0.03 0.03 0.04 0.05 0.05 0.04 0.04 0.08 0.18 0.34 0.47 0.75 0.99 0.97 1.07 0.68 0.51 0.61 0.75 1.00 1.28 1.51 1.74 1.83 1.93 1.90 1.93 1.93 1.97 2.02 1.89 1.80 1.70 1.51 1.22 1.15 1.11 1.07 1.03 0.92 0.77 0.66
0.03 0.03 0.03 0.03 0.03 0.04 0.04 0.06 0.12 0.21 0.36 0.70 0.69 0.80 1.08 1.04 0.89 0.50 0.32 0.37 0.57 0.72 0.79 0.88 0.95 1.00 1.20 1.25 1.33 1.45 1.51 1.62 1.70 1.64 1.47 1.36 1.22 1.18 1.17 1.08 0.91 0.79 0.73 0.68
0.09 0.07 0.05 0.05 0.05 0.06 0.05 0.09 0.31 0.63 0.98 1.03 0.61 0.70 1.06 0.98 0.65 0.35 0.23 0.21 0.28 0.44 0.62 0.75 0.81 0.85 0.99 0.96 1.01 1.11 1.18 1.19 1.27 1.25 1.16 1.14 1.17 1.15 1.06 0.97 0.86 0.73 0.57 0.53
0.15 0.14 0.09 0.06 0.06 0.06 0.06 0.07 0.18 0.35 0.45 0.60 0.63 1.09 1.28 0.70 0.39 0.24 0.17 0.15 0.20 0.32 0.49 0.57 0.56 0.63 0.72 0.67 0.73 0.84 0.95 0.96 0.97 0.99 1.00 0.98 1.05 0.96 0.90 0.94 0.87 0.74 0.60 0.54
0.06 0.08 0.07 0.07 0.07 0.07 0.06 0.05 0.07 0.09 0.16 0.42 0.77 1.08 0.97 0.54 0.37 0.21 0.17 0.16 0.18 0.25 0.36 0.41 0.35 0.39 0.48 0.54 0.59 0.66 0.80 0.86 0.83 0.86 0.90 0.86 0.92 0.93 0.93 0.90 0.83 0.71 0.70 0.60
0.04 0.03 0.05 0.05 0.07 0.07 0.06 0.06 0.07 0.10 0.18 0.37 0.67 1.05 1.17 0.82 0.44 0.25 0.23 0.25 0.23 0.23 0.26 0.26 0.27 0.27 0.34 0.44 0.55 0.64 0.73 0.79 0.78 0.81 0.82 0.70 0.79 0.88 0.97 0.93 0.82 0.76 0.77 0.67
0.03 0.02 0.05 0.05 0.07 0.08 0.09 0.08 0.10 0.10 0.11 0.21 0.50 0.74 0.60 0.56 0.36 0.31 0.29 0.29 0.25 0.23 0.24 0.22 0.20 0.22 0.26 0.33 0.45 0.55 0.69 0.75 0.75 0.77 0.84 0.88 0.87 0.78 0.85 0.87 0.86 0.85 0.88 0.79
0.03 0.03 0.04 0.08 0.10 0.10 0.11 0.11 0.12 0.13 0.12 0.12 0.26 0.38 0.36 0.50 0.45 0.38 0.34 0.34 0.34 0.23 0.21 0.23 0.23 0.22 0.25 0.28 0.33 0.42 0.54 0.66 0.70 0.74 0.84 0.90 0.94 0.85 0.83 0.85 0.89 0.91 0.98 1.02
0.03 0.04 0.06 0.15 0.22 0.17 0.12 0.11 0.12 0.12 0.10 0.11 0.26 0.39 0.35 0.39 0.40 0.37 0.42 0.36 0.31 0.30 0.28 0.26 0.29 0.30 0.30 0.34 0.35 0.43 0.53 0.67 0.77 0.79 0.82 0.89 0.93 0.87 0.86 0.96 1.04 1.04 1.13 1.19
0.04 0.04 0.06 0.15 0.25 0.28 0.20 0.13 0.12 0.10 0.08 0.09 0.15 0.34 0.34 0.37 0.37 0.43 0.45 0.39 0.34 0.32 0.30 0.26 0.26 0.28 0.32 0.41 0.44 0.52 0.70 0.68 0.65 0.75 0.81 0.86 0.89 0.92 0.95 1.02 1.09 1.11 1.16 1.22
0.04 0.04 0.04 0.05 0.09 0.15 0.19 0.17 0.13 0.09 0.07 0.09 0.14 0.26 0.34 0.43 0.46 0.44 0.41 0.40 0.38 0.33 0.32 0.26 0.24 0.25 0.34 0.44 0.47 0.52 0.60 0.72 0.73 0.85 0.96 1.01 1.11 1.19 1.22 1.26 1.25 1.22 1.24 1.24
0.07 0.06 0.04 0.04 0.07 0.11 0.13 0.16 0.11 0.08 0.07 0.07 0.14 0.30 0.38 0.36 0.35 0.44 0.45 0.43 0.39 0.34 0.30 0.30 0.32 0.33 0.36 0.42 0.49 0.55 0.56 0.67 0.81 0.99 1.14 1.24 1.37 1.45 1.53 1.66 1.76 1.67 1.58 1.62
0.13 0.10 0.08 0.07 0.10 0.11 0.15 0.14 0.12 0.13 0.12 0.12 0.18 0.29 0.34 0.37 0.43 0.64 0.69 0.61 0.57 0.46 0.43 0.44 0.46 0.46 0.46 0.46 0.50 0.54 0.61 0.74 0.92 1.12 1.32 1.46 1.58 1.71 1.86 1.96 1.99 1.94 1.98 2.04
0.19 0.19 0.16 0.12 0.16 0.22 0.19 0.19 0.17 0.18 0.20 0.22 0.28 0.33 0.43 0.59 0.68 0.77 0.84 0.75 0.66 0.54 0.49 0.50 0.59 0.62 0.57 0.58 0.65 0.73 0.84 0.99 1.18 1.36 1.52 1.67 1.71 1.74 1.83 1.92 1.87 1.88 2.00 2.08
0.21 0.25 0.26 0.22 0.25 0.24 0.25 0.28 0.28 0.31 0.41 0.39 0.47 0.54 0.63 0.69 0.66 0.68 0.63 0.56 0.48 0.48 0.55 0.56 0.63 0.71 0.73 0.72 0.79 0.87 0.91 1.03 1.21 1.37 1.45 1.50 1.61 1.72 1.76 1.79 1.82 1.86 1.89 1.81
0.31 0.31 0.40 0.36 0.38 0.39 0.40 0.42 0.38 0.43 0.76 0.72 0.64 0.66 0.67 0.70 0.84 0.78 0.60 0.53 0.53 0.53 0.53 0.57 0.57 0.61 0.69 0.78 0.81 0.84 0.91 1.03 1.22 1.35 1.37 1.37 1.50 1.62 1.69 1.74 1.78 1.75 1.71 1.65
0.50 0.53 0.51 0.49 0.51 0.44 0.43 0.39 0.37 0.63 0.87 0.81 0.82 0.89 0.83 0.87 0.92 0.84 0.68 0.66 0.61 0.58 0.53 0.54 0.59 0.61 0.64 0.74 0.79 0.87 0.98 1.04 1.10 1.19 1.26 1.33 1.47 1.59 1.65 1.72 1.72 1.69 1.65 1.66
0.59 0.63 0.63 0.64 0.76 0.75 0.55 0.46 0.63 0.81 0.67 0.79 0.85 0.83 0.86 0.84 0.76 0.76 0.74 0.75 0.70 0.61 0.61 0.61 0.62 0.74 0.79 0.82 0.81 0.87 0.88 0.88 0.94 0.99 1.06 1.09 1.19 1.34 1.41 1.50 1.50 1.53 1.50 1.47
0.75 0.74 0.76 0.84 0.91 0.75 0.65 0.68 0.72 0.72 0.68 0.72 0.82 0.86 0.89 0.91 0.87 0.74 0.70 0.66 0.76 0.78 0.72 0.70 0.68 0.71 0.76 0.85 0.89 0.94 0.90 0.84 0.83 0.84 0.84 0.88 0.95 1.12 1.28 1.33 1.32 1.34 1.35 1.32
0.89 0.73 0.80 1.02 1.05 0.91 0.84 0.81 0.73 0.72 0.74 0.72 0.81 0.94 0.98 0.93 0.82 0.72 0.62 0.52 0.49 0.50 0.51 0.58 0.63 0.69 0.74 0.74 0.76 0.83 0.84 0.82 0.85 0.86 0.86 0.89 0.96 1.07 1.31 1.42 1.33 1.27 1.25 1.21
0.89 0.91 0.96 1.11 1.17 0.99 0.89 0.84 0.83 0.80 0.77 0.78 0.87 0.96 0.94 0.82 0.75 0.68 0.58 0.48 0.41 0.38 0.37 0.42 0.47 0.50 0.53 0.53 0.57 0.62 0.67 0.75 0.78 0.77 0.73 0.74 0.82 0.95 1.16 1.30 1.30 1.15 1.12 1.14
0.77 0.91 1.03 1.15 1.06 1.08 1.11 1.01 0.95 0.96 0.94 0.92 0.95 1.00 0.92 0.79 0.72 0.64 0.50 0.41 0.38 0.35 0.34 0.39 0.42 0.45 0.47 0.49 0.56 0.64 0.72 0.81 0.84 0.81 0.75 0.73 0.75 0.85 1.04 1.25 1.33 1.16 0.97 0.96